THOR AGENA B DEB, 2092

Orbit data source: Space-Track

THOR AGENA B DEB, 2092 is space debris in LEO originally from a launch on Mon, 29 Nov 1965 UTC launched from the Air Force Western Test Range (AFWTR). Debris objects in space refer to the collection of defunct objects orbiting the Earth. Examples of debris include non-operational satellites, rocket bodies, and fragments generated from explosions, collisions, or faulty payload assembly.

Loading next visibility...
THOR AGENA B DEB details
Identifier
2092, 1965-098H
Orbit
LEO
Last TLE update9 hours ago
Origin
Flag of USGSFC (US)
ManufacturerUnknown
MissionSpacecraft
Bus & MotorUnknown
Mass~1 kg wet, ~1 kg dry
Launch date (UTC)
1965-11-29 (59 years ago)
Launch vehicleUnknown
Launch site
Air Force Western Test Range (AFWTR)
Object type
Payload
Rocket body
Debris
Shape & HBRAnn Cyl, 0.2 m
Radar Cross Section0.031 m², Small (<0.1 m²)

Expand to show TLE details & history

TLE from 9 hours ago
0 THOR AGENA B DEB
1 02092U 65098H   25018.55949296  .00001330  00000-0  42865-3 0  9991
2 02092  79.8608  80.3058 1304341  82.7759 291.9357 12.33491957616925
Epoch: 2025-01-18T13:25Z
Definitive object data (Epoch: 2025-01-18T13:25:40.191Z)
Latitude-0.00007°
Longitude120.68129°
Altitude1,274.9 km
Speed7.337 km/s
True Right ascension05h 21m 13s
True Declination0° 00' 00"
Sunlit
Object was in full shadow at TLE epoch
Visualization TLE readout
Latitude-74.3267°
Longitude80.9588°
Altitude2,512.375 km
Speed6.28 km/s
Apparent Right ascension09h 41m 55s
Apparent Declination-73° 40' 41"
Sunlit
Object is in daylight
Visualization observer readout
Local Sidereal Time23:35:19
Azimuth166.985° S
Elevation-53.659°
Doppler factor1
Orbital elements
Apogee altitude2,563.444 km
Perigee altitude500.012 km
Semi-major axis7,909.865 km
Eccentricity0.1304341
Inclination79.8608°
RAAN80.3058°
Arg. of periapsis82.7759°
True anomaly277.33519°
Mean anomaly291.9357°
Eccentric anomaly284.70723°
Mean motion3.08524 °/min
BSTAR0.00042865
Orbital period116.68 mins
Loading maneuver chart data...
Loading historical data...
Loading historical data...
Loading historical data...
Loading historical data...
Loading historical data...
Loading historical data...
Loading historical data...

THOR AGENA B DEB Visibility forecast

Observer location: undefined°, undefined

Span
Click to sort rows by Start time (UTC) header in descending order
Start Az.
Max El. time (UTC)
Max El. Az.
Max El.
End time (UTC)
End Az.
9 mins2025-01-19 05:06:26.865Z198.96° SSW2025-01-19 05:11:26.865Z275.165° WNW42.466°2025-01-19 05:15:26.865Z4.294° NNE
9 mins2025-01-19 15:17:26.865Z10.696° NNE2025-01-19 15:20:26.865Z85.709° E39.083°2025-01-19 15:26:26.865Z154.144° SSE
5 mins2025-01-19 17:16:26.865Z287.249° WNW2025-01-19 17:18:26.865Z263.83° W14.894°2025-01-19 17:21:26.865Z235.931° WSW
|